This is the latest recevied weather packets stored in our database for station/object VR2HK-13. If no packets are shown the sender has not sent any weather packets the latest 10 day(s).
| Time | Temp. | Humidity | Pressure | Rain* | Wind** | Luminosity | Snow |
|---|---|---|---|---|---|---|---|
| 1778178623 | 24.44° C | 84% | 1011.6 hPa | 6.86 mm | - | - | - |
| 1778178323 | 24.44° C | 85% | 1011.7 hPa | 7.11 mm | - | - | - |
| 1778178023 | 24.44° C | 85% | 1011.8 hPa | 7.37 mm | - | - | - |
| 1778177723 | 24.44° C | 85% | 1011.8 hPa | 7.11 mm | - | - | - |
| 1778177423 | 24.44° C | 85% | 1011.8 hPa | 7.62 mm | - | - | - |
| 1778177123 | 24.44° C | 85% | 1011.8 hPa | 7.11 mm | - | - | - |
| 1778176823 | 24.44° C | 85% | 1011.9 hPa | 6.86 mm | - | - | - |
| 1778176523 | 24.44° C | 84% | 1011.9 hPa | 6.86 mm | - | - | - |
| 1778176223 | 25° C | 84% | 1012 hPa | 6.1 mm | - | - | - |
| 1778175922 | 25° C | 84% | 1012 hPa | 5.84 mm | - | - | - |
| 1778175623 | 25° C | 84% | 1012 hPa | 5.59 mm | - | - | - |
| 1778175323 | 25° C | 84% | 1012 hPa | 5.59 mm | - | - | - |
| 1778175022 | 25° C | 84% | 1012.1 hPa | 5.33 mm | - | - | - |
| 1778174723 | 25° C | 84% | 1012.1 hPa | 5.59 mm | - | - | - |
| 1778174422 | 25° C | 84% | 1012.1 hPa | 6.35 mm | - | - | - |
| 1778174404 | 25° C | 84% | 1012.1 hPa | 6.1 mm | - | - | - |
| 1778174123 | 25° C | 84% | 1012.1 hPa | 6.1 mm | - | - | - |
| 1778174094 | 25° C | 84% | 1012.1 hPa | 7.11 mm | - | - | - |
| 1778173822 | 25° C | 84% | 1012.1 hPa | 7.11 mm | - | - | - |
| 1778173784 | 25° C | 84% | 1012.1 hPa | 7.11 mm | - | - | - |
| 1778173474 | 25° C | 84% | 1012.2 hPa | 7.62 mm | - | - | - |
| 1778173222 | 25° C | 84% | 1012.1 hPa | 7.37 mm | - | - | - |
| 1778173164 | 25° C | 84% | 1012.1 hPa | 7.87 mm | - | - | - |
| 1778172922 | 25° C | 84% | 1012.3 hPa | 8.64 mm | - | - | - |
| 1778172854 | 25° C | 84% | 1012.2 hPa | 8.64 mm | - | - | - |
* Rain latest hour (hover to see other rain measurements)
** Current wind speed in m/s (hover to see current wind gust speed)